Content
SEND FEEDBACK

Daily
Averages
Monthly
Summary
United States of America

UMATAC, GUAM


Home > North America > United States > Guam
Elevation: 190 feet     Latitude: 13 17N     Longitude: 144 40E

WEATHER
 
SELECT A DAY
Number of Records: 342,554;   Date Range: 1/1/95 - 9/16/14
 
SHARE

PRINT THIS DATA

[ ← Previous Day ]
WEATHER ALMANAC - APRIL 10, 2013
[ Next Day → ]
[ °C ]   °F
Weather ElementAverageHighLow
Temperature81.2 °F84.9 °F (1:55 pm)77 °F (10:39 pm)
Dewpoint72.9 °F73.9 °F (7:55 am)69.8 °F (6:46 pm)
Humidity75.9 %89 % (10:39 pm)67 % (2:55 pm)
Barometer29.83 in29.88 in (8:06 am)29.77 in (3:55 pm)
Wind Speed16.2 mph19.6 mph (2:02 pm)
Wind Gust24.2 mph (2:12 pm)
Weather ElementAverage
Visibility10 mi
Wind DirectionNE (48.5 °)

Weather ElementTotal
Precipitation---
Cooling Degree Days16 (Base 65)
Growing Degree Days31 (Base 50)
Averaged from 91 records on April 10, 2013
WEATHER CONDITIONS BREAKOUT
WIND DIRECTION BREAKOUT
WEATHER BY HOUR - APRIL 10, 2013
[ °C ]   °F
Local TimeTemperatureDewpointHumidityBarometerVisibilityWind DirectionWind SpeedGust SpeedPrecipitationEventsConditions
2:02 AM78.8 °F73.4 °F83 %29.83 in10.0 miENE (60°)11.5 mphMostly Cloudy
2:04 AM78.8 °F73.4 °F83 %29.83 in10.0 miNE (50°)12.7 mphScattered Clouds
2:08 AM78.8 °F73.4 °F83 %29.83 in10.0 miENE (60°)13.8 mphMostly Cloudy
2:11 AM78.8 °F73.4 °F83 %29.83 in10.0 miNE (50°)13.8 mphScattered Clouds
2:12 AM78.8 °F73.4 °F83 %29.83 in10.0 miNE (50°)12.7 mphMostly Cloudy
2:27 AM78.8 °F73.4 °F83 %29.83 in10.0 miENE (60°)13.8 mphMostly Cloudy
2:55 AM78.3 °F73.2 °F84 %29.82 in10.0 miNE (50°)13.8 mphScattered Clouds
3:12 AM78.8 °F73.4 °F83 %29.82 in10.0 miNE (50°)13.8 mphMostly Cloudy
3:21 AM78.8 °F73.4 °F83 %29.82 in10.0 miNE (50°)13.8 mphMostly Cloudy
3:55 AM78.8 °F73.0 °F82 %29.81 in10.0 miENE (60°)12.7 mphOvercast
4:08 AM78.8 °F73.4 °F83 %29.81 in10.0 miNE (50°)12.7 mphMostly Cloudy
4:46 AM78.8 °F73.4 °F83 %29.82 in10.0 miENE (60°)15.0 mphScattered Clouds
4:55 AM78.4 °F73.4 °F84 %29.82 in10.0 miENE (60°)13.8 mphMostly Cloudy
5:55 AM78.4 °F73.4 °F84 %29.84 in10.0 miENE (60°)13.8 mphScattered Clouds
6:07 AM78.8 °F73.4 °F83 %29.84 in10.0 miNE (50°)12.7 mphMostly Cloudy
6:09 AM78.8 °F73.4 °F83 %29.84 in10.0 miNE (50°)12.7 mphMostly Cloudy
6:10 AM78.8 °F73.4 °F83 %29.85 in10.0 miNE (50°)12.7 mphMostly Cloudy
6:13 AM78.8 °F73.4 °F83 %29.85 in10.0 miNE (50°)12.7 mphMostly Cloudy
6:55 AM79.2 °F73.0 °F81 %29.86 in10.0 miNE (50°)16.1 mphMostly Cloudy
7:32 AM80.6 °F73.4 °F79 %29.86 in10.0 miNE (50°)15.0 mphMostly Cloudy
7:35 AM80.6 °F73.4 °F79 %29.86 in10.0 miNE (50°)16.1 mphMostly Cloudy
7:48 AM80.6 °F73.4 °F79 %29.87 in10.0 miNE (50°)17.3 mphMostly Cloudy
7:55 AM80.4 °F73.9 °F81 %29.87 in10.0 miNE (40°)17.3 mphMostly Cloudy
7:57 AM80.6 °F73.4 °F79 %29.87 in10.0 miNE (50°)17.3 mphMostly Cloudy
8:06 AM80.6 °F73.4 °F79 %29.88 in10.0 miNE (40°)16.1 mphMostly Cloudy
8:09 AM80.6 °F73.4 °F79 %29.88 in10.0 miNE (40°)17.3 mphMostly Cloudy
8:13 AM80.6 °F73.4 °F79 %29.87 in10.0 miNE (40°)17.3 mphScattered Clouds
8:14 AM80.6 °F73.4 °F79 %29.88 in10.0 miNE (40°)17.3 mphMostly Cloudy
8:16 AM80.6 °F73.4 °F79 %29.87 in10.0 miNE (50°)15.0 mphScattered Clouds
8:55 AM81.9 °F73.9 °F77 %29.88 in10.0 miNE (40°)17.3 mphScattered Clouds
9:00 AM82.4 °F73.4 °F74 %29.88 in10.0 miNE (40°)17.3 mphMostly Cloudy
9:03 AM82.4 °F73.4 °F74 %29.88 in10.0 miNE (40°)17.3 mphMostly Cloudy
9:12 AM82.4 °F73.4 °F74 %29.88 in10.0 miNE (40°)16.1 mphMostly Cloudy
9:20 AM82.4 °F73.4 °F74 %29.88 in10.0 miNE (40°)16.1 mphMostly Cloudy
9:55 AM83.1 °F73.2 °F72 %29.88 in10.0 miNE (40°)16.1 mphPartly Cloudy
10:21 AM84.2 °F73.4 °F70 %29.88 in10.0 miNE (40°)17.3 mphMostly Cloudy
10:34 AM84.2 °F73.4 °F70 %29.88 in10.0 miNE (40°)17.3 mphScattered Clouds
10:44 AM82.4 °F73.4 °F74 %29.88 in10.0 miNE (40°)17.3 mphMostly Cloudy
10:55 AM84.4 °F73.8 °F70 %29.88 in10.0 miNE (50°)16.1 mphMostly Cloudy
11:05 AM84.2 °F73.4 °F70 %29.87 in10.0 miNE (40°)17.3 mphMostly Cloudy
11:07 AM84.2 °F73.4 °F70 %29.87 in10.0 miNE (40°)17.3 mphMostly Cloudy
11:24 AM84.2 °F73.4 °F70 %29.86 in10.0 miNNE (30°)17.3 mph21.9 mphScattered Clouds
11:29 AM84.2 °F73.4 °F70 %29.86 in10.0 miNNE (30°)17.3 mphMostly Cloudy
11:37 AM84.2 °F73.4 °F70 %29.86 in10.0 miNE (40°)18.4 mphScattered Clouds
11:46 AM84.2 °F73.4 °F70 %29.86 in10.0 miNNE (30°)17.3 mphMostly Cloudy
11:47 AM84.2 °F73.4 °F70 %29.85 in10.0 miNNE (30°)17.3 mphScattered Clouds
11:55 AM84.2 °F73.0 °F69 %29.85 in10.0 miNE (50°)17.3 mphScattered Clouds
12:53 PM84.2 °F73.4 °F70 %29.82 in10.0 miNE (40°)18.4 mphMostly Cloudy
12:55 PM83.8 °F73.8 °F72 %29.82 in10.0 miNE (40°)17.3 mphMostly Cloudy
12:59 PM84.2 °F73.4 °F70 %29.82 in10.0 miNE (40°)16.1 mphMostly Cloudy
1:01 PM84.2 °F73.4 °F70 %29.82 in10.0 miNE (40°)17.3 mphMostly Cloudy
1:32 PM84.2 °F73.4 °F70 %29.80 in10.0 miNE (40°)18.4 mphMostly Cloudy
1:42 PM84.2 °F73.4 °F70 %29.80 in10.0 miNE (40°)18.4 mphMostly Cloudy
1:44 PM84.2 °F73.4 °F70 %29.79 in10.0 miNE (40°)18.4 mphScattered Clouds
1:45 PM84.2 °F73.4 °F70 %29.79 in10.0 miNE (40°)18.4 mphMostly Cloudy
1:47 PM84.2 °F73.4 °F70 %29.79 in10.0 miNE (40°)18.4 mphScattered Clouds
1:55 PM84.9 °F73.6 °F69 %29.79 in10.0 miNE (50°)18.4 mphScattered Clouds
2:02 PM84.2 °F73.4 °F70 %29.79 in10.0 miNE (50°)19.6 mphMostly Cloudy
2:12 PM84.2 °F73.4 °F70 %29.78 in10.0 miNE (50°)16.1 mph24.2 mphScattered Clouds
2:22 PM84.2 °F73.4 °F70 %29.78 in10.0 miNNE (30°)19.6 mphMostly Cloudy
2:24 PM84.2 °F73.4 °F70 %29.78 in10.0 miNE (40°)17.3 mphScattered Clouds
2:54 PM84.2 °F73.4 °F70 %29.78 in10.0 miNE (40°)19.6 mphMostly Cloudy
2:55 PM84.9 °F72.7 °F67 %29.78 in10.0 miNNE (30°)18.4 mphMostly Cloudy
3:24 PM84.2 °F73.4 °F70 %29.78 in10.0 miNE (40°)18.4 mphScattered Clouds
3:36 PM84.2 °F73.4 °F70 %29.78 in10.0 miENE (60°)17.3 mphMostly Cloudy
3:55 PM82.8 °F73.0 °F72 %29.77 in10.0 miENE (60°)17.3 mphMostly Cloudy
4:15 PM82.4 °F71.6 °F70 %29.77 in10.0 miENE (60°)15.0 mphScattered Clouds
4:46 PM82.4 °F73.4 °F74 %29.77 in10.0 miENE (60°)15.0 mphMostly Cloudy
4:51 PM82.4 °F71.6 °F70 %29.77 in10.0 miNE (40°)15.0 mphMostly Cloudy
4:55 PM81.5 °F71.6 °F72 %29.77 in10.0 miNE (40°)17.3 mphScattered Clouds
5:02 PM82.4 °F71.6 °F70 %29.77 in10.0 miNE (40°)16.1 mphMostly Cloudy
5:10 PM80.6 °F71.6 °F74 %29.77 in10.0 miNE (40°)16.1 mphScattered Clouds
5:55 PM80.4 °F71.1 °F73 %29.78 in10.0 miNE (50°)15.0 mphPartly Cloudy
6:19 PM80.6 °F71.6 °F74 %29.79 in10.0 miENE (60°)16.1 mphMostly Cloudy
6:30 PM78.8 °F71.6 °F78 %29.79 in10.0 miENE (60°)15.0 mphScattered Clouds
6:38 PM78.8 °F71.6 °F78 %29.80 in10.0 miNE (50°)15.0 mphMostly Cloudy
6:46 PM78.8 °F69.8 °F74 %29.80 in10.0 miNE (50°)17.3 mphScattered Clouds
6:55 PM79.0 °F70.5 °F75 %29.80 in10.0 miNE (50°)16.1 mphScattered Clouds
7:55 PM78.1 °F70.2 °F77 %29.83 in10.0 miENE (60°)15.0 mph21.9 mphPartly Cloudy
8:55 PM78.4 °F71.6 °F79 %29.84 in10.0 miENE (60°)18.4 mphScattered Clouds
8:57 PM78.8 °F71.6 °F78 %29.84 in10.0 miENE (60°)16.1 mphMostly Cloudy
9:02 PM78.8 °F71.6 °F78 %29.84 in10.0 miENE (60°)17.3 mphScattered Clouds
9:14 PM78.8 °F71.6 °F78 %29.85 in10.0 miENE (60°)18.4 mphMostly Cloudy
9:28 PM78.8 °F71.6 °F78 %29.85 in10.0 miENE (60°)13.8 mphScattered Clouds
9:55 PM78.6 °F71.6 °F79 %29.85 in10.0 miNE (50°)16.1 mphPartly Cloudy
10:31 PM78.8 °F71.6 °F78 %29.86 in10.0 miENE (60°)18.4 mph24.2 mphRainLight Rain
10:39 PM77.0 °F73.4 °F89 %29.86 in9.0 miENE (70°)16.1 mph24.2 mphRainLight Rain
10:44 PM77.0 °F73.4 °F89 %29.86 in10.0 miENE (60°)16.1 mph23.0 mphMostly Cloudy
10:55 PM77.2 °F71.4 °F82 %29.86 in10.0 miENE (70°)17.3 mph0.00 inMostly Cloudy
11:06 PM77.0 °F69.8 °F78 %29.85 in10.0 miEast (80°)19.6 mphMostly Cloudy
11:55 PM77.2 °F69.8 °F78 %29.85 in10.0 miEast (80°)15.0 mphClear
Hourly data recorded from PGUA, located miles away from Umatac, Guam







STORIES FROM OUR PARTNERS